Location: Unspecified
(0.0000°N, 0.0000°E)
Time: 18:34:09
(UTC+00:00)

Vanguard 1 - Pass Details

Date: 16 April 2026
Orbit: 654 x 3817 km, 34.2° (Epoch: 18 May)

Event Time Altitude Azimuth Distance (km) Brightness Sun altitude
Rises 00:25:59 0° 283° (WNW) 7,765 14.6 -78.0°
Reaches altitude 10° 00:33:49 10° 297° (WNW) 6,901 14.3 -76.9°
Enters shadow 00:37:40 14° 306° (NW) 6,524 14.1 -76.2°
Exits shadow 00:48:28 21° 337° (NNW) 5,755 13.8 -74.3°
Maximum altitude 00:49:22 21° 340° (NNW) 5,716 13.8 -74.1°
Drops below altitude 10° 01:02:44 10° 23° (NNE) 5,832 14.1 -71.4°
Sets 01:08:34 0° 39° (NE) 6,325 14.5 -70.2°
